Springfield, OH

2:46 PM EST on December 10, 2016 (GMT -0500)
Springfield-Beckley Municipal

Weather History for KSGH - April, 2014

Change the Weather History Date:

Saturday, April 12, 2014

  Actual Average (KFFO) Record (KFFO)
Temperature  
Mean Temperature 56 °F -  
Max Temperature 74 °F 61 °F 80 °F (2001)
Min Temperature 38 °F 40 °F 28 °F (2009)
Degree Days  
Heating Degree Days 9    
Growing Degree Days 6 (Base 50)    
Moisture  
Dew Point 47 °F    
Average Humidity 66    
Maximum Humidity 97    
Minimum Humidity 43    
Precipitation  
Precipitation 0.00 in - - ()
Sea Level Pressure  
Sea Level Pressure 30.06 in    
Wind  
Wind Speed 6 mph (South)    
Max Wind Speed 17 mph    
Max Gust Speed 23 mph    
Visibility 7 miles    
Events      
Averages and records for this station are not official NWS values.
T = Trace of Precipitation, MM = Missing Value Source: NWS Daily Summary

Daily Weather History Graph

Daily Weather History Graph

Search for Another Location

Airport or City:

Trip Planner

Search our weather history database for the weather conditions in past years. The results will help you decide how hot, cold, wet, or windy it might be!

Date:

Astronomy

Apr. 12, 2014 Rise Set
Actual Time 7:02 AM EDT 8:10 PM EDT
Civil Twilight 6:34 AM EDT 8:38 PM EDT
Nautical Twilight 6:01 AM EDT 9:11 PM EDT
Astronomical Twilight 5:26 AM EDT 9:46 PM EDT
Moon 5:48 PM EDT (4/12) 5:28 AM EDT (4/12)
Length of Visible Light 14h 04m
Length of Day
13h 08m
Waxing Gibbous, 93% of the Moon is Illuminated
Apr 12
Waxing Gibbous
Apr 15
Full
Apr 22
Last Quarter
Apr 29
New
May 6
First Quarter

Hourly Weather History & Observations

Time (EDT) Temp. Windchill Dew Point Humidity Pressure Visibility Wind Dir Wind Speed Gust Speed Precip Events Conditions
12:56 AM 45.9 °F - 43.0 °F 90% 30.12 in 7.0 mi Calm Calm - N/A   Clear
1:56 AM 41.0 °F - 38.8 °F 92% 30.12 in 6.0 mi Calm Calm - N/A   Clear
2:56 AM 41.9 °F 39.0 °F 41.0 °F 97% 30.13 in 7.0 mi SSE 4.6 mph - N/A   Clear
3:56 AM 38.8 °F - 37.9 °F 97% 30.14 in 7.0 mi Calm Calm - N/A   Clear
4:56 AM 38.8 °F - 37.9 °F 97% 30.14 in 6.0 mi Calm Calm - N/A   Clear
5:56 AM 48.9 °F - 41.9 °F 77% 30.15 in 8.0 mi South 8.1 mph - N/A   Clear
6:56 AM 43.0 °F 38.8 °F 39.9 °F 89% 30.16 in 7.0 mi SE 6.9 mph - N/A   Clear
7:56 AM 45.0 °F 41.2 °F 41.0 °F 86% 30.17 in 6.0 mi SE 6.9 mph - N/A   Clear
8:56 AM 54.9 °F - 45.9 °F 72% 30.18 in 7.0 mi South 9.2 mph - N/A   Clear
9:56 AM 59.9 °F - 46.9 °F 62% 30.17 in 7.0 mi South 9.2 mph - N/A   Partly Cloudy
10:56 AM 63.9 °F - 47.8 °F 56% 30.16 in 7.0 mi SSE 10.4 mph - N/A   Clear
11:56 AM 68.0 °F - 45.0 °F 43% 30.14 in 7.0 mi SSE 15.0 mph - N/A   Clear
12:56 PM 70.9 °F - 47.8 °F 44% 30.09 in 7.0 mi South 17.3 mph 21.9 mph N/A   Clear
1:56 PM 72.9 °F - 52.0 °F 48% 30.06 in 7.0 mi South 17.3 mph 23.0 mph N/A   Clear
2:56 PM 72.9 °F - 52.9 °F 49% 30.04 in 7.0 mi SSE 11.5 mph 19.6 mph N/A   Scattered Clouds
3:56 PM 74.8 °F - 54.0 °F 48% 30.01 in 7.0 mi SSW 12.7 mph 21.9 mph N/A   Scattered Clouds
4:56 PM 73.9 °F - 54.0 °F 50% 29.98 in 7.0 mi SSW 13.8 mph - N/A   Mostly Cloudy
5:56 PM 74.8 °F - 54.0 °F 48% 29.96 in 7.0 mi South 15.0 mph - N/A   Mostly Cloudy
6:56 PM 73.9 °F - 54.0 °F 50% 29.95 in 7.0 mi South 10.4 mph - N/A   Clear
7:56 PM 72.0 °F - 52.9 °F 51% 29.94 in 7.0 mi South 11.5 mph - N/A   Clear
8:56 PM 68.9 °F - 52.9 °F 57% 29.93 in 8.0 mi South 6.9 mph - N/A   Clear
9:56 PM 66.9 °F - 52.0 °F 59% 29.92 in 9.0 mi South 4.6 mph - N/A   Clear
10:56 PM 64.9 °F - 52.0 °F 63% 29.90 in 8.0 mi South 6.9 mph - N/A   Clear
11:56 PM 63.9 °F - 52.0 °F 65% 29.88 in 8.0 mi South 8.1 mph - N/A   Clear